Date,TemperatureHighF,TemperatureAvgF,TemperatureLowF,DewpointHighF,DewpointAvgF,DewpointLowF,HumidityHigh,HumidityAvg,HumidityLow,PressureMaxIn,PressureMinIn,WindSpeedMaxMPH,WindSpeedAvgMPH,GustSpeedMaxMPH,PrecipitationSumIn
2013-10-1,76.4,64.2,53.4,64.0,57.8,50.0,93,81,61,29.93,29.81,17,5,24,0.00
2013-10-2,75.1,64.1,56.3,61.0,51.0,40.0,96,67,28,30.06,29.86,9,3,13,0.00
2013-10-3,77.3,66.0,56.2,65.0,58.8,47.0,93,78,57,30.02,29.86,9,4,11,0.00
2013-10-4,70.1,63.7,62.0,67.0,61.4,-99.9,98,95,90,30.04,29.86,21,-4,22,0.22
2013-10-5,68.1,64.0,61.7,67.0,62.9,61.0,98,96,94,30.03,29.81,18,11,20,0.05
2013-10-6,71.7,64.8,54.3,68.0,63.0,53.0,98,94,79,29.80,29.61,8,2,13,0.22
2013-10-7,59.6,53.0,48.3,53.0,48.2,44.0,97,85,57,30.07,29.61,19,5,25,0.02
2013-10-8,69.8,55.8,43.6,50.0,46.2,43.0,97,73,45,30.26,30.07,10,2,11,0.02
2013-10-9,69.2,57.5,46.4,59.0,49.1,43.0,92,75,43,30.30,30.19,8,3,11,0.00
2013-10-10,63.0,55.7,46.2,59.0,51.8,45.0,95,87,72,30.23,30.11,10,3,11,0.00
2013-10-11,62.8,55.8,45.3,58.0,51.6,44.0,96,86,73,30.16,30.06,17,6,18,0.00
2013-10-12,78.5,62.2,50.4,62.0,54.8,48.0,94,78,48,30.09,29.97,11,3,13,0.00
2013-10-13,64.5,57.8,48.7,60.0,47.8,43.0,90,71,50,30.35,30.03,11,4,14,0.00
2013-10-14,55.6,52.4,48.5,48.0,45.3,42.0,87,77,67,30.42,30.28,20,12,22,0.00
2013-10-15,65.5,54.9,43.3,59.0,50.6,42.0,97,86,69,30.27,29.76,15,4,17,0.39
2013-10-16,59.7,54.5,49.4,59.0,50.8,47.0,97,88,78,29.85,29.74,14,6,19,0.39
2013-10-17,52.3,49.4,44.2,49.0,47.1,43.0,97,92,83,29.86,29.70,23,3,29,0.56
2013-10-18,61.3,48.5,39.1,48.0,42.7,39.0,98,82,49,29.86,29.77,11,4,18,0.01
2013-10-19,51.6,46.1,39.6,44.0,40.2,32.0,91,81,47,29.84,29.68,12,4,20,0.02
2013-10-20,53.9,46.2,39.1,45.0,39.4,36.0,96,79,52,29.86,29.73,9,4,16,0.03
2013-10-21,53.7,49.6,40.2,49.0,41.9,31.0,89,75,61,29.80,29.72,19,7,25,0.05
2013-10-22,48.7,39.8,32.3,36.0,31.2,25.0,84,71,55,29.87,29.80,22,6,25,0.00
2013-10-23,45.5,38.0,31.8,35.0,30.4,22.0,94,76,40,29.90,29.83,17,5,25,0.00
2013-10-24,45.2,36.4,30.1,35.0,31.2,28.0,95,82,61,30.14,29.90,15,4,21,0.00
2013-10-25,46.7,38.7,30.3,35.0,29.9,26.0,95,73,44,30.29,29.97,13,5,21,0.00
2013-10-26,47.8,43.0,35.6,41.0,35.8,30.0,91,76,59,29.96,29.70,21,9,32,0.12
2013-10-27,51.1,41.8,32.5,35.0,32.9,29.0,93,73,51,30.03,29.92,13,4,16,0.12
2013-10-28,43.6,41.2,39.0,38.0,34.1,30.0,84,76,67,30.44,30.00,28,16,31,0.00
2013-10-29,41.8,39.4,34.5,37.0,33.9,31.0,91,81,70,30.47,30.25,18,10,18,0.03
2013-10-30,54.1,42.0,33.2,46.0,39.3,32.0,96,90,71,30.24,29.92,8,2,12,0.03
2013-10-31,61.5,57.7,50.9,60.0,56.6,46.0,99,96,78,29.90,29.02,11,4,20,1.33